This is the latest recevied weather packets stored in our database for station/object W4VCO. If no packets are shown the sender has not sent any weather packets the latest 10 day(s).
| Time | Temp. | Humidity | Pressure | Rain* | Wind** | Luminosity | Snow |
|---|---|---|---|---|---|---|---|
| 1777851317 | 24.44° C | 61% | 1014.6 hPa | 0 mm | - | - | - |
| 1777848021 | 26.11° C | 54% | 1014.2 hPa | 0 mm | - | - | - |
| 1777847717 | 26.11° C | 53% | 1014.1 hPa | 0 mm | - | - | - |
| 1777846819 | 27.22° C | 50% | 1013.9 hPa | 0 mm | - | - | - |
| 1777844719 | 26.67° C | 52% | 1013.9 hPa | 0 mm | - | - | - |
| 1777844421 | 26.67° C | 51% | 1013.9 hPa | 0 mm | - | - | - |
| 1777842021 | 27.78° C | 48% | 1013.8 hPa | 0 mm | - | - | - |
| 1777841117 | 27.78° C | 49% | 1014.1 hPa | 0 mm | - | - | - |
| 1777840819 | 27.22° C | 51% | 1014.1 hPa | 0 mm | - | - | - |
| 1777838417 | 26.11° C | 55% | 1014.5 hPa | 0 mm | - | - | - |
| 1777836317 | 27.22° C | 52% | 1015 hPa | 0 mm | - | - | - |
| 1777835419 | 26.67° C | 53% | 1015.1 hPa | 0 mm | - | - | - |
| 1777830917 | 23.89° C | 65% | 1016 hPa | 0 mm | - | - | - |
| 1777830318 | 23.89° C | 62% | 1016 hPa | 0 mm | - | - | - |
| 1777828517 | 23.33° C | 65% | 1016.2 hPa | 0 mm | - | - | - |
| 1777827918 | 23.33° C | 66% | 1016.3 hPa | 0 mm | - | - | - |
| 1777825518 | 22.78° C | 69% | 1016.7 hPa | 0 mm | - | - | - |
| 1777823118 | 21.11° C | 77% | 1016.7 hPa | 0 mm | - | - | - |
| 1777820422 | 19.44° C | 84% | 1017 hPa | 0 mm | - | - | - |
| 1777820118 | 19.44° C | 84% | 1017 hPa | 0 mm | - | - | - |
| 1777819518 | 19.44° C | 84% | 1016.9 hPa | 0 mm | - | - | - |
| 1777819220 | 19.44° C | 85% | 1016.7 hPa | 0 mm | - | - | - |
| 1777818318 | 18.89° C | 87% | 1016.5 hPa | 0 mm | - | - | - |
| 1777818020 | 18.89° C | 87% | 1016.4 hPa | 0 mm | - | - | - |
| 1777817718 | 18.89° C | 88% | 1016.4 hPa | 0 mm | - | - | - |
* Rain latest hour (hover to see other rain measurements)
** Current wind speed in m/s (hover to see current wind gust speed)